Flag for Germany Weather past 2 weeks in Emsdetten, North Rhine-Westphalia, Germany

Now
77 °F

Passing clouds.


Feels Like: 79 °F
Forecast: 58 / 75 °F
Wind: 3 mph from Southeast

Location: Muenster / Osnabrueck

Current Time: Aug 3, 2015 at 10:05:35 PM

Latest Report: Aug 3, 2015 at 9:20 PM


Visibility: N/A

Pressure: 29.92 "Hg

Humidity: 51%

Dew point: 57 °F

Location of EmsdettenLocation

Historic Weather in Emsdetten — Graph

°F

Emsdetten temperature yesterday

Maximum temperature yesterday: 77 °F (at 4:50 PM)
Minimum temperature yesterday: 46 °F (at 6:20 AM)
Average temperature yesterday: 64 °F

Past Weeks' High & Low Weather Summary

 TemperatureHumidityPressure
High90 °F (Aug 3, 4:20 PM)100% (Jul 20, 4:50 AM)30.15 "Hg (Jul 20, 4:50 AM)
Low45 °F (Jul 31, 5:50 AM)26% (Aug 3, 5:20 PM)29.47 "Hg (Jul 25, 7:20 AM)
Average64 °F69%29.87 "Hg
* Reported Jul 19 8:20 PM — Aug 3 8:50 PM, Emsdetten, Weather by CustomWeather, © 2015

Note: Actual official high and low records may vary slightly from our data, if they occured in-between our weather recording intervals... More about our weather records

Advertising

Emsdetten weather history for previous 24 hours

 ConditionsComfort  
Time TempWeatherWind HumidityBarometerVisibility
8:50 PM
Mon, Aug 3
82 °FPassing clouds.3 mph40%29.92 "HgN/A
8:20 PM82 °FPassing clouds.5 mph40%29.92 "HgN/A
7:50 PM84 °FSunny.5 mph35%29.92 "Hg10 mi
7:20 PM88 °FPassing clouds.7 mph31%29.92 "HgN/A
6:50 PM88 °FPassing clouds.10 mph29%29.92 "HgN/A
6:20 PM88 °FPassing clouds.9 mph27%29.92 "HgN/A
5:50 PM90 °FPassing clouds.10 mph26%29.92 "HgN/A
5:20 PM90 °FPassing clouds.10 mph26%29.92 "HgN/A
4:50 PM90 °FPassing clouds.12 mph27%29.95 "HgN/A
4:20 PM90 °FPassing clouds.10 mph27%29.95 "HgN/A
3:50 PM88 °FPassing clouds.12 mph27%29.95 "HgN/A
3:20 PM88 °FClear.14 mph27%29.95 "HgN/A
2:20 PM86 °FPassing clouds.12 mph33%29.95 "HgN/A
1:50 PM88 °FPassing clouds.14 mph29%29.95 "HgN/A
1:20 PM86 °FPassing clouds.13 mph33%29.98 "HgN/A
12:50 PM86 °FPassing clouds.7 mph35%29.98 "HgN/A
12:20 PM84 °FPassing clouds.8 mph37%29.98 "HgN/A
11:50 AM82 °FPassing clouds.8 mph40%29.98 "HgN/A
11:20 AM81 °FPassing clouds.6 mph45%29.98 "HgN/A
10:50 AM79 °FPassing clouds.8 mph45%29.98 "HgN/A
10:20 AM75 °FPassing clouds.7 mph50%29.98 "HgN/A
9:50 AM73 °FPassing clouds.8 mph53%29.98 "HgN/A
9:20 AM72 °FPassing clouds.6 mph53%29.98 "HgN/A
8:50 AM68 °FSunny.6 mph60%30.01 "Hg10 mi
8:20 AM66 °FPassing clouds.5 mph60%30.01 "HgN/A
7:50 AM64 °FPassing clouds.6 mph60%30.01 "HgN/A
7:20 AM64 °FSunny.5 mph60%30.01 "Hg10 mi
6:50 AM63 °FPassing clouds.5 mph59%30.01 "HgN/A
6:20 AM63 °FPassing clouds.5 mph59%30.01 "HgN/A
5:50 AM61 °FPassing clouds.5 mph63%30.01 "HgN/A
5:20 AM61 °FPassing clouds.5 mph59%30.01 "HgN/A
4:50 AM59 °FClear.2 mph68%30.01 "Hg10 mi
4:20 AM59 °FClear.2 mph68%30.04 "Hg10 mi
3:50 AM59 °FClear.2 mph68%30.04 "Hg10 mi
3:20 AM61 °FClear.2 mph63%30.04 "Hg10 mi
2:50 AM61 °FClear.2 mph63%30.04 "Hg10 mi
2:20 AM61 °FPassing clouds.3 mph68%30.04 "HgN/A
1:50 AM61 °FClear.2 mph68%30.07 "Hg10 mi
1:20 AM63 °FClear.2 mph64%30.07 "Hg10 mi
12:50 AM63 °FPassing clouds.3 mph64%30.07 "HgN/A
12:20 AM61 °FPassing clouds.3 mph72%30.07 "HgN/A
11:20 PM
Sun, Aug 2
64 °FPassing clouds.3 mph60%30.07 "HgN/A
10:50 PM66 °FPassing clouds.5 mph56%30.07 "HgN/A
10:20 PM66 °FPassing clouds.5 mph56%30.07 "HgN/A
Weather by CustomWeather, © 2015

See weather overviewHow to use our weather pages